SCP
0 0 0 0 0 0 0 0 0 0 0 0 0 0 0 0 0 0 0 0 0 0 0 0 0 0 0 0 0 0 0 0 0 0 0 0 0 0 0 0 0 0 0
0 0 0 0 0 0 0 0 0 0 0 0 0 0 0 0 0 0 0 0 0 0 0 0 0 0 0 0 0 0 0 0 0 0 0 0 0 0 0 0 0 0 0
0 0 0 0 0 0 0 0 0 0 0 0 0 0 0 0 0 0 0 0 0 0 0 0 0 0 0 0 0 0 0 0 0 0 0 0 0 0 0 0 0 0 0
0 0 0 0 0 0 0 0 0 0 0 0 0 0 0 0 0 0 0 0 0 0 0 0 0 0 0 0 0 0 0 0 0 0 0 0 0 0 0 0 0 0 0
0 0 0 0 0 0 0 0 0 0 0 0 0 0 0 0 0 0 0 0 0 0 0 0 0 0 0 0 0 0 0 0 0 0 0 0 0 0 0 0 0 0 0
0 0 0 0 0 0 0 0 0 0 0 0 0 0 0 0 0 0 0 0 0 0 0 0 0 0 0 0 0 0 0 0 0 0 0 0 0 0 0 0 0 0 0
0 0 0 0 0 0 0 0 0 0 0 0 0 0 0 0 0 0 0 0 0 0 0 0 0 0 0 0 0 0 0 0 0 0 0 0 0 0 0 0 0 0 0
0 0 0 0 0 0 0 0 0 0 0 0 0 0 0 0 0 0 0 0 0 0 0 0 0 0 0 0 0 0 0 0 0 0 0 0 0 0 0 0 0 0 0
0 0 0 0 0 0 0 0 0 0 0 0 0 0 0 0 0 0 0 0 0 0 0 0 0 0 0 0 0 0 0 0 0 0 0 0 0 0 0 0 0 0 0
0 0 0 0 0 0 0 0 0 0 0 0 0 0 0 0 0 0 0 0 0 0 0 0 0 0 0 0 0 0 0 0 0 0 0 0 0 0 0 0 0 0 0
0 0 0 0 0 0 0 0 0 0 0 0 0 0 0 0 0 0 0 0 0 0 0 0 0 0 0 0 0 0 0 0 0 0 0 0 0 0 0 0 0 0 0
0 0 0 0 0 0 0 0 0 0 0 0 0 0 0 0 0 0 0 0 0 0 0 0 0 0 0 0 0 0 0 0 0 0 0 0 0 0 0 0 0 0 0
0 0 0 0 0 0 0 0 0 0 0 0 0 0 0 0 0 0 0 0 0 0 0 0 0 0 0 0 0 0 0 0 0 0 0 0 0 0 0 0 0 0 0
0 0 0 0 0 0 0 0 0 0 0 0 0 0 0 0 0 0 0 0 0 0 0 0 0 0 0 0 0 0 0 0 0 0 0 0 0 0 0 0 0 0 0
0 0 0 0 0 0 0 0 0 0 0 0 0 0 0 0 0 0 0 0 0 0 0 0 0 0 0 0 0 0 0 0 0 0 0 0 0 0 0 0 0 0 0
0 0 0 0 0 0 0 0 0 0 0 0 0 0 0 0 0 0 0 0 0 0 0 0 0 0 0 0 0 0 0 0 0 0 0 0 0 0 0 0 0 0 0
0 0 0 0 0 0 0 0 0 0 0 0 0 0 0 0 0 0 0 0 0 0 0 0 0 0 0 0 0 0 0 0 0 0 0 0 0 0 0 0 0 0 0
0 0 0 0 0 0 0 0 0 0 0 0 0 0 0 0 0 0 0 0 0 0 0 0 0 0 0 0 0 0 0 0 0 0 0 0 0 0 0 0 0 0 0
0 0 0 0 0 0 0 0 0 0 0 0 0 0 0 0 0 0 0 0 0 0 0 0 0 0 0 0 0 0 0 0 0 0 0 0 0 0 0 0 0 0 0
1 1 0 0 0 0 0 0 0 0 0 0 0 0 0 0 0 0 0 0 0 0 0 0 0 0 0 0 0 0 0 0 0 0 0 0 0 0 0 0 0 0 0
1 1 0 0 0 0 0 0 0 0 0 0 0 0 0 0 0 0 0 0 0 0 0 0 0 0 0 0 0 0 0 0 0 0 0 0 0 0 0 0 0 0 0
1 0 0 0 0 0 0 0 0 0 0 0 0 0 0 0 0 0 0 0 0 0 0 0 0 0 0 0 0 0 0 0 0 0 0 0 0 0 0 0 0 0 0
0 0 0 0 0 0 0 0 0 0 0 0 0 0 0 0 0 0 0 0 0 0 0 0 0 0 0 0 0 0 0 0 0 0 0 0 0 0 0 0 0 0 0
0 0 0 0 0 0 0 0 0 0 0 0 0 0 0 0 0 0 0 0 0 0 0 0 0 0 0 0 0 0 0 0 0 0 0 0 0 0 0 0 0 0 0
0 0 0 0 0 0 0 0 0 0 0 0 0 0 0 0 0 0 0 0 0 0 0 0 0 0 0 0 0 0 0 0 0 0 0 0 0 0 0 0 0 0 0
0 0 0 0 0 0 0 0 0 0 0 0 0 0 0 0 0 0 0 0 0 0 0 0 0 0 0 0 0 0 0 0 0 0 0 0 0 0 0 0 0 0 0
Wind_Speed
2 2 1 1 2 1 2 2 2 2 2 3 3 3 3 4 4 5 4 11 13 12 12 12 12 12 12 11 10 10 10 10 10 9 9 8 8 8 8 8 7 7 6
3 2 2 1 2 2 2 2 2 2 2 2 2 3 3 3 4 4 4 6 12 12 12 13 13 13 12 12 11 10 10 10 10 9 9 8 8 8 8 7 7 7 6
3 2 1 1 2 2 1 1 1 1 1 1 2 2 2 2 3 4 4 4 5 11 13 13 13 12 12 12 12 11 10 10 9 9 9 9 8 8 7 7 7 7 7
3 2 1 2 2 1 1 1 0 1 1 1 1 2 2 1 3 4 4 4 4 4 8 13 13 12 13 13 12 11 11 11 10 9 9 9 8 8 8 8 7 7 7
2 2 1 2 1 0 0 1 0 1 1 1 2 2 2 2 2 3 4 5 5 5 4 8 12 12 12 12 12 12 11 11 10 10 10 9 9 9 9 8 8 7 7
2 2 1 1 1 0 1 1 1 0 1 1 2 2 2 2 2 3 4 4 4 6 6 5 5 7 12 11 11 11 12 11 11 11 11 10 10 9 9 8 8 8 8
3 3 2 1 1 1 1 1 1 1 1 0 1 2 3 2 2 2 2 2 3 4 4 5 4 3 4 9 10 10 11 12 12 12 11 11 10 10 9 9 9 8 8
3 3 3 2 2 1 1 1 0 0 1 0 1 1 3 4 3 2 1 2 3 2 4 5 4 4 4 3 5 9 10 12 13 13 12 11 10 10 10 9 9 9 8
3 3 3 3 2 2 2 2 1 1 1 1 1 2 1 2 3 3 2 2 2 2 2 2 4 4 5 3 3 8 11 11 12 13 13 12 11 10 10 10 10 9 9
3 3 3 3 3 2 2 2 1 2 2 1 1 1 2 3 1 2 3 2 2 2 2 2 2 4 4 4 5 8 10 10 11 12 12 12 12 11 10 9 9 9 9
2 3 3 3 3 3 3 2 2 2 2 2 1 1 1 1 2 2 3 4 3 2 2 2 2 2 3 4 4 6 8 9 10 10 10 11 12 12 11 11 10 9 9
2 2 3 3 3 3 3 3 3 2 2 2 1 1 1 1 2 2 3 3 3 3 2 1 2 2 2 3 5 6 7 7 8 9 10 10 10 11 11 11 10 10 9
1 2 2 2 2 2 3 3 2 2 1 1 2 1 1 2 2 2 2 2 2 2 2 1 2 2 3 2 3 7 7 7 7 7 9 9 10 10 10 10 10 10 10
2 2 2 2 2 2 2 2 1 2 1 1 2 2 1 1 1 2 2 1 1 2 2 3 2 2 2 2 4 6 4 7 7 8 9 10 10 9 9 9 9 8 8
2 2 2 2 2 2 2 1 1 1 1 1 1 1 1 2 1 1 1 2 3 2 3 3 2 2 2 2 3 3 3 5 6 8 9 10 9 9 9 9 9 8 7
2 1 2 2 2 2 2 1 1 1 1 1 1 1 1 2 1 1 1 1 2 3 3 3 3 2 2 2 3 3 4 5 7 7 8 8 8 8 8 9 9 8 8
2 1 2 2 2 2 1 1 1 1 1 1 1 1 2 2 1 1 1 1 1 2 3 3 2 1 1 2 1 2 2 3 3 7 8 7 7 7 7 7 8 8 8
1 1 1 1 1 1 1 1 1 0 0 1 1 1 2 1 2 2 1 1 2 2 2 3 2 1 2 2 2 2 2 2 2 5 6 6 6 7 7 7 8 8 8
1 1 1 1 1 1 1 1 1 1 1 1 1 1 2 1 2 2 2 2 2 2 2 2 2 2 2 1 1 2 1 1 2 2 3 5 5 6 6 6 6 7 8
1 1 1 1 1 1 1 1 1 1 0 1 2 2 2 2 2 2 2 2 2 1 1 1 2 2 1 1 0 1 2 1 1 1 1 2 3 5 6 6 6 7 8
1 1 1 1 1 1 1 1 1 1 1 2 2 2 2 2 2 2 2 2 1 1 1 1 2 1 2 1 2 2 2 1 2 1 1 1 1 2 3 5 6 7 7
1 1 1 1 1 1 1 1 1 1 1 2 3 3 2 2 3 3 3 3 2 2 2 2 2 2 3 3 2 2 1 0 2 1 1 2 1 2 2 3 5 6 7
0 1 1 1 1 2 1 2 2 1 1 1 1 2 2 2 2 2 4 4 3 4 4 3 3 4 3 3 2 2 2 2 3 2 1 1 1 2 2 3 5 7 6
1 2 2 2 1 2 2 2 2 1 1 2 2 2 2 3 3 2 2 3 3 4 4 3 4 5 4 4 3 4 3 2 2 1 2 1 1 2 2 2 4 6 6
2 2 2 2 2 2 2 2 2 1 1 2 2 2 2 3 4 4 2 3 4 5 4 4 5 5 6 6 3 1 1 1 2 2 1 2 1 1 1 2 2 4 5
2 1 1 1 2 2 2 2 2 1 1 2 3 3 4 5 5 3 2 3 4 5 4 4 4 4 3 4 3 3 3 2 1 2 2 2 1 1 1 1 1 1 2
Wind_Direction
191 202 214 210 212 221 226 239 247 250 251 246 239 229 213 202 202 194 204 202 201 201 201 200 201 201 201 203 203 204 205 205 206 208 211 212 212 214 215 219 218 218 218
177 188 208 213 227 227 222 221 228 236 244 241 255 246 231 209 200 196 199 205 205 203 207 207 207 206 206 206 206 207 209 210 210 210 213 213 214 216 218 217 216 216 220
175 180 201 226 240 245 238 238 251 255 261 273 284 273 252 217 196 196 197 203 208 210 211 211 210 209 210 211 210 212 214 214 213 212 212 214 216 216 216 217 215 216 217
179 173 194 238 249 250 244 236 289 329 311 316 298 286 273 244 212 198 197 204 206 213 215 215 214 213 216 217 217 218 218 216 214 212 211 213 214 214 216 215 216 216 216
186 175 209 251 260 253 264 253 158 192 259 298 286 278 276 244 229 217 209 206 209 210 209 217 219 218 220 220 221 222 221 218 215 213 215 217 216 215 217 216 215 218 217
198 182 202 261 283 288 295 274 270 248 219 245 284 303 286 261 239 230 222 209 205 208 209 212 217 225 225 225 223 224 223 220 216 217 219 219 218 218 217 216 218 218 217
204 192 205 221 202 199 241 248 224 285 287 277 20 334 321 301 270 251 233 215 214 216 208 212 212 218 225 228 228 225 226 224 219 217 219 221 220 219 217 216 215 220 222
210 203 197 210 212 212 260 271 196 257 290 188 146 40 340 338 328 292 263 217 217 214 214 211 205 205 212 213 216 223 229 230 227 220 218 220 219 218 218 218 218 222 224
211 205 195 201 217 205 227 246 219 188 247 287 168 156 165 254 307 317 295 258 239 225 228 211 205 212 214 217 220 226 227 228 229 227 221 217 215 215 218 221 221 221 221
210 201 199 200 217 211 215 235 219 206 197 257 280 215 194 182 185 306 317 306 288 257 246 229 212 217 215 213 222 221 222 225 226 227 225 220 216 214 217 220 220 219 220
224 209 201 197 214 220 216 231 231 221 198 204 218 238 240 207 173 189 288 311 320 290 262 223 200 202 208 213 218 221 222 226 226 225 227 224 220 218 219 221 223 225 224
239 229 211 211 214 209 210 217 226 215 212 204 202 196 193 197 207 187 233 269 284 288 280 242 224 211 216 221 224 211 213 221 223 221 222 221 222 221 220 222 225 227 229
242 242 225 216 212 215 215 208 209 220 219 211 216 222 217 221 202 188 198 246 268 284 294 273 243 221 220 217 227 216 215 216 222 227 228 225 225 223 221 222 225 226 227
223 230 222 214 210 211 218 203 209 230 225 226 242 235 230 244 222 205 195 199 274 294 293 270 273 246 238 218 232 217 221 214 217 224 225 225 225 221 221 222 222 222 223
212 214 203 198 201 201 207 191 199 247 252 240 252 246 235 249 238 231 209 189 195 241 270 260 259 259 252 237 234 218 227 224 226 229 227 224 224 221 220 220 217 217 216
212 211 211 203 199 209 209 191 222 251 246 273 254 280 285 280 278 269 240 218 196 194 239 256 246 254 255 254 221 214 232 230 229 229 228 224 222 221 218 218 212 213 213
206 204 208 200 201 212 218 187 219 208 221 278 296 281 291 294 294 295 280 255 226 186 230 269 263 280 265 269 248 228 227 218 229 228 226 223 220 217 217 217 212 211 209
204 191 179 177 195 192 188 197 221 233 192 278 288 294 295 297 299 289 282 275 259 226 211 257 281 286 270 273 259 236 235 223 223 227 218 219 219 218 216 218 217 214 212
171 164 155 170 194 172 190 204 185 186 214 255 262 262 276 285 294 295 289 283 274 271 217 222 260 260 267 306 316 285 277 296 260 230 216 223 221 221 221 223 220 214 209
160 168 177 183 181 167 166 189 160 167 242 271 264 256 260 251 262 278 289 282 277 291 289 255 270 279 276 286 269 269 289 288 279 270 244 222 217 221 224 222 219 212 207
187 181 166 156 164 158 195 207 212 229 248 271 280 274 266 259 254 255 272 261 259 261 272 268 272 286 283 280 259 249 256 277 268 247 230 241 208 212 218 218 215 213 211
213 159 153 193 215 243 234 216 199 251 263 270 286 294 296 312 313 308 302 282 232 227 241 246 258 259 265 253 252 252 243 274 283 268 188 254 210 226 227 218 215 210 210
204 210 218 202 231 259 240 225 217 213 246 265 278 296 307 327 323 313 314 312 293 271 230 217 237 248 251 247 236 249 234 217 234 244 165 268 259 247 244 233 210 205 202
214 233 236 225 219 249 239 245 258 260 270 278 273 269 276 295 302 294 298 307 296 287 265 237 234 247 251 246 224 221 220 229 255 264 157 218 261 256 268 239 204 197 196
225 240 236 227 226 260 254 253 244 262 276 284 284 292 280 281 293 292 287 286 294 293 282 267 256 265 269 268 247 202 217 186 266 271 194 187 233 255 268 253 218 194 197
221 244 259 251 231 252 259 255 228 206 259 282 296 292 278 278 295 297 260 265 278 283 298 312 308 304 293 292 280 215 205 196 222 259 237 185 205 175 282 280 239 208 194